Back to catalog

FREGAT DEB

LostUNKNOWN
NORAD 48857·DEBRIS·🇷🇺 Russia

Launched Jul 18, 2011 from Baikonur Cosmodrome

Loading…

Next Passes (next 24 hours)

TLE

StaleSource: Space-Track

Epoch: Jun 9, 2021, 23:19 UTC

1 48857U 11037PD  21160.97220659  .00644853  00000-0  19129+0 0  9995
2 48857  51.0346  70.8738 2485175 194.4214 161.8749 10.04727295 13471

Track FREGAT DEB in real time with AllMySat

Download on the App Store